BREEZE-M R/B, 42909

Orbit data source: Space-Track

BREEZE-M R/B, 42909 is space debris in GEO originally from a launch on Wed, 16 Aug 2017 UTC launched from the Tyuratam Missile And Space Complex (TTMTR). Debris objects in space refer to the collection of defunct objects orbiting the Earth. Examples of debris include non-operational satellites, rocket bodies, and fragments generated from explosions, collisions, or faulty payload assembly.

Loading next visibility...
Identifier
42909, 2017-046C
Orbit
GEO
Country
Flag of CISCIS
Related business
Manufacturer
Khrunichev
Mission
Spacecraft
Bus & Motor
BRIZ, Unknown motor
Mass
~1,600 kg wet, 1,600 kg dry
Launch date (UTC)
2017-08-16 (9 years ago)
Launch vehicle
Unknown
Launch site
Tyuratam Missile And Space Complex (TTMTR)
Object type
Payload
Rocket body
Debris
Shape & HBR
Cyl, 2.4 m
Radar Cross Section
15.135 m², Medium (>0.1 m² and < 1m²)

Expand to show TLE details & history
Last TLE update: 1 day ago

TLE from 1 day ago
0 BREEZE-M R/B
1 42909U 17046C   26256.49831626 -.00000168  00000-0  00000-0 0  9998
2 42909   8.9439  67.2473 0761534 163.5124 199.3211  0.90332501 29950
Epoch: 2026-09-13T11:57Z
TLE epoch observation values (Epoch: 2026-09-13T11:57:34.524Z)
Latitude
-0°
Longitude
-104.4977°
Altitude
42,087.164 km
Speed
2.762 km/s
True Right ascension
04h 29m 33s
True Declination
0° 00' 00"
Sunlit
Object was in daylight at epoch
Visualization orbit readout
Latitude
Unknown
Longitude
Unknown
Altitude
Unknown
Speed
Unknown
Apparent Right ascension
Unknown
Apparent Declination
Unknown
Sunlit
N/A
Visualization observer readout
Local Sidereal Time
13:25:32
Azimuth
Unknown
Elevation
Unknown
Doppler factor
Unknown
Orbital elements
Apogee altitude
42,268.86 km
Perigee altitude
35,383.904 km
Semi-major axis
45,204.519 km
Eccentricity
0.07615
Inclination
8.9439°
RAAN
67.2473°
Arg. of periapsis
163.5124°
True anomaly
196.67342°
Mean anomaly
199.3211°
Eccentric anomaly
197.97461°
Mean motion
0.22582 °/min
Orbital period
1,594.16 mins
BSTAR
0
Loading maneuver chart data...
Computing Atmospheric mass density...
Loading historical data...
Loading historical data...
Loading historical data...
Loading historical data...
Loading historical data...
Loading historical data...
Loading historical data...
Other satellites on launch #46 in the year 2017 (2017-08-16 UTC)

Documentation

Showing up to 5 results
|